,,Stat6,,Stat2,,Stat8,,Stat9,,Stat10,,Wind1,,Wind1,
time,status,PA1M_AVG,status,PR1M_SUM,status,RH1M_AVG,status,SR1M_AVG,status,TA1M_AVG,status,W1dAve1m,status,W1sAve1m,
2004-04-26, 00:00:00,VALID,917.102,VALID,0,VALID,97.9822,VALID,-0.0679233,VALID,21.0542,VALID,16,VALID,0.0130814,
2004-04-26, 00:01:00,VALID,917.088,VALID,0,VALID,98.0267,VALID,-0.0509425,VALID,21.0574,VALID,16,VALID,0.0812137,
2004-04-26, 00:02:00,VALID,917.085,VALID,0,VALID,98.0776,VALID,-0.0339617,VALID,21.0679,VALID,16,VALID,0.326451,
2004-04-26, 00:03:00,VALID,917.078,VALID,0,VALID,98.0776,VALID,-0.0169808,VALID,21.083,VALID,16,VALID,0.465234,
2004-04-26, 00:04:00,VALID,917.064,VALID,0,VALID,97.9644,VALID,0.0339617,VALID,21.0625,VALID,16,VALID,0.556176,
2004-04-26, 00:05:00,VALID,917.068,VALID,0,VALID,97.8411,VALID,0.0339617,VALID,21.0504,VALID,16,VALID,0.795117,
2004-04-26, 00:06:00,VALID,917.069,VALID,0,VALID,98.0318,VALID,0.0679233,VALID,21.0437,VALID,16,VALID,0.805208,
2004-04-26, 00:07:00,VALID,917.078,VALID,0,VALID,98.1297,VALID,0,VALID,21.0238,VALID,16,VALID,0.797619,
2004-04-26, 00:08:00,VALID,917.061,VALID,0,VALID,98.2518,VALID,0.0509425,VALID,21.0076,VALID,16,VALID,0.828307,
2004-04-26, 00:09:00,VALID,917.073,VALID,0,VALID,98.3586,VALID,0.0339617,VALID,21.0171,VALID,28,VALID,0.773082,
2004-04-26, 00:10:00,VALID,917.077,VALID,0,VALID,98.248,VALID,0.0339617,VALID,21.0206,VALID,52,VALID,0.996189,
2004-04-26, 00:11:00,VALID,917.085,VALID,0,VALID,98.1501,VALID,0.0849042,VALID,21.0041,VALID,67,VALID,1.25038,
2004-04-26, 00:12:00,VALID,917.084,VALID,0,VALID,98.1272,VALID,0.101885,VALID,21.0012,VALID,88,VALID,1.44043,
2004-04-26, 00:13:00,VALID,917.079,VALID,0,VALID,98.206,VALID,0.0679233,VALID,20.9848,VALID,75,VALID,1.31194,
2004-04-26, 00:14:00,VALID,917.069,VALID,0,VALID,98.2162,VALID,0.0509425,VALID,20.9818,VALID,61,VALID,1.13491,
2004-04-26, 00:15:00,VALID,917.043,VALID,0,VALID,98.0979,VALID,0.0509425,VALID,20.9783,VALID,42,VALID,1.00934,
2004-04-26, 00:16:00,VALID,917.025,VALID,0,VALID,97.9644,VALID,0.0339617,VALID,21.0047,VALID,33,VALID,0.83085,
2004-04-26, 00:17:00,VALID,917.017,VALID,0,VALID,97.8131,VALID,0.0679233,VALID,21.0047,VALID,23,VALID,0.559549,
2004-04-26, 00:18:00,VALID,916.987,VALID,0,VALID,97.7953,VALID,0,VALID,21.0219,VALID,21,VALID,0.318201,
2004-04-26, 00:19:00,VALID,916.956,VALID,0,VALID,97.8576,VALID,-0.0339617,VALID,21.0644,VALID,18,VALID,0.368459,
2004-04-26, 00:20:00,VALID,916.923,VALID,0,VALID,97.78,VALID,-0.0849042,VALID,21.1328,VALID,15,VALID,0.177591,
2004-04-26, 00:21:00,VALID,916.872,VALID,0,VALID,97.5753,VALID,-0.0509425,VALID,21.1872,VALID,15,VALID,0.0770833,
2004-04-26, 00:22:00,VALID,916.848,VALID,0,VALID,97.1391,VALID,-0.0679233,VALID,21.2254,VALID,72,VALID,0.217634,
2004-04-26, 00:23:00,VALID,916.824,VALID,0,VALID,96.7246,VALID,-0.0339617,VALID,21.2195,VALID,150,VALID,0.435547,
2004-04-26, 00:24:00,VALID,916.802,VALID,0,VALID,96.544,VALID,-0.0169808,VALID,21.2168,VALID,150,VALID,0.559152,
2004-04-26, 00:25:00,VALID,916.783,VALID,0,VALID,96.5771,VALID,-0.0509425,VALID,21.1678,VALID,138,VALID,0.553977,
2004-04-26, 00:26:00,VALID,916.762,VALID,0,VALID,96.8149,VALID,-0.0679233,VALID,21.1285,VALID,122,VALID,0.747159,
2004-04-26, 00:27:00,VALID,916.759,VALID,0,VALID,96.9904,VALID,-0.0339617,VALID,21.1228,VALID,124,VALID,0.718378,
2004-04-26, 00:28:00,VALID,916.762,VALID,0,VALID,97.148,VALID,-0.0509425,VALID,21.0937,VALID,124,VALID,0.59446,
2004-04-26, 00:29:00,VALID,916.749,VALID,0,VALID,97.2879,VALID,-0.0339617,VALID,21.0709,VALID,130,VALID,0.490234,
2004-04-26, 00:30:00,VALID,916.755,VALID,0,VALID,97.3629,VALID,-0.0169808,VALID,21.0542,VALID,143,VALID,0.708939,
2004-04-26, 00:31:00,VALID,916.742,VALID,0,VALID,97.3986,VALID,-0.0339617,VALID,21.0647,VALID,147,VALID,0.358487,
2004-04-26, 00:32:00,VALID,916.741,VALID,0,VALID,97.4138,VALID,-0.0169808,VALID,21.0711,VALID,147,VALID,0.33817,
2004-04-26, 00:33:00,VALID,916.729,VALID,0,VALID,97.4367,VALID,-0.0339617,VALID,21.0841,VALID,147,VALID,0.0489211,
2004-04-26, 00:34:00,VALID,916.711,VALID,0,VALID,97.457,VALID,-0.0679233,VALID,21.0929,VALID,147,VALID,0.218023,
2004-04-26, 00:35:00,VALID,916.691,VALID,0,VALID,97.4049,VALID,-0.0169808,VALID,21.0897,VALID,147,VALID,0.0660156,
2004-04-26, 00:36:00,VALID,916.677,VALID,0,VALID,97.396,VALID,-0.0339617,VALID,21.1067,VALID,147,VALID,0.0113636,
2004-04-26, 00:37:00,VALID,916.671,VALID,0,VALID,97.2816,VALID,-0.0509425,VALID,21.1002,VALID,147,VALID,0.373183,
2004-04-26, 00:38:00,VALID,916.683,VALID,0,VALID,97.2243,VALID,-0.0509425,VALID,21.0674,VALID,85,VALID,0.575868,
2004-04-26, 00:39:00,VALID,916.702,VALID,0,VALID,97.3019,VALID,0,VALID,21.051,VALID,343,VALID,0.36772,
2004-04-26, 00:40:00,VALID,916.713,VALID,0,VALID,97.466,VALID,-0.0509425,VALID,21.0415,VALID,343,VALID,0.285974,
2004-04-26, 00:41:00,VALID,916.737,VALID,0,VALID,97.4952,VALID,-0.0679233,VALID,21.0421,VALID,343,VALID,0.250727,
2004-04-26, 00:42:00,VALID,916.739,VALID,0,VALID,97.7381,VALID,-0.0679233,VALID,21.055,VALID,341,VALID,0.324414,
2004-04-26, 00:43:00,VALID,916.736,VALID,0,VALID,97.9593,VALID,-0.0339617,VALID,21.0614,VALID,339,VALID,0.171512,
2004-04-26, 00:44:00,VALID,916.746,VALID,0,VALID,98.0839,VALID,-0.0849042,VALID,21.0423,VALID,339,VALID,0.34375,
2004-04-26, 00:45:00,VALID,916.739,VALID,0,VALID,98.2238,VALID,-0.0679233,VALID,21.0512,VALID,352,VALID,0.479167,
2004-04-26, 00:46:00,VALID,916.752,VALID,0,VALID,98.1831,VALID,-0.0849042,VALID,21.0585,VALID,10,VALID,0.79173,
2004-04-26, 00:47:00,VALID,916.752,VALID,0,VALID,98.1564,VALID,-0.0679233,VALID,21.0356,VALID,23,VALID,1.32101,
2004-04-26, 00:48:00,VALID,916.755,VALID,0,VALID,98.1958,VALID,0.0169808,VALID,21.0122,VALID,32,VALID,1.08648,
2004-04-26, 00:49:00,VALID,916.769,VALID,0,VALID,98.2429,VALID,0.0679233,VALID,20.9958,VALID,30,VALID,0.866186,
2004-04-26, 00:50:00,VALID,916.78,VALID,0,VALID,98.3192,VALID,0.0509425,VALID,20.9756,VALID,34,VALID,0.652716,
2004-04-26, 00:51:00,VALID,916.785,VALID,0,VALID,98.3726,VALID,0.0849042,VALID,20.9691,VALID,34,VALID,0.480283,
2004-04-26, 00:52:00,VALID,916.781,VALID,0,VALID,98.426,VALID,0.0339617,VALID,20.9662,VALID,34,VALID,0.51527,
2004-04-26, 00:53:00,VALID,916.782,VALID,0,VALID,98.4934,VALID,0.0849042,VALID,20.9764,VALID,34,VALID,0.286156,
2004-04-26, 00:54:00,VALID,916.776,VALID,0,VALID,98.5506,VALID,0.0509425,VALID,20.9691,VALID,34,VALID,0.047433,
2004-04-26, 00:55:00,VALID,916.758,VALID,0,VALID,98.6447,VALID,0.0509425,VALID,20.9923,VALID,34,VALID,0.000372024,
2004-04-26, 00:56:00,VALID,916.746,VALID,0,VALID,98.7236,VALID,0.0509425,VALID,21.0149,VALID,34,VALID,0.187128,
2004-04-26, 00:57:00,VALID,916.733,VALID,0,VALID,98.7948,VALID,0.0679233,VALID,21.0179,VALID,34,VALID,0.0753348,
2004-04-26, 00:58:00,VALID,916.718,VALID,0,VALID,98.8978,VALID,0.0679233,VALID,21.031,VALID,34,VALID,0,
2004-04-26, 00:59:00,VALID,916.71,VALID,0,VALID,98.9982,VALID,0.0169808,VALID,21.0372,VALID,34,VALID,0.107887,
2004-04-26, 01:00:00,VALID,916.683,VALID,0,VALID,99.0987,VALID,0.0339617,VALID,21.0701,VALID,34,VALID,0.218932,
2004-04-26, 01:01:00,VALID,916.675,VALID,0,VALID,99.1496,VALID,0.0509425,VALID,21.0991,VALID,34,VALID,0.247332,
2004-04-26, 01:02:00,VALID,916.662,VALID,0,VALID,99.0949,VALID,0.101885,VALID,21.1016,VALID,34,VALID,0.370236,
2004-04-26, 01:03:00,VALID,916.635,VALID,0,VALID,99.0911,VALID,0.0509425,VALID,21.1183,VALID,34,VALID,0.43192,
2004-04-26, 01:04:00,VALID,916.606,VALID,0,VALID,99.072,VALID,0.0339617,VALID,21.122,VALID,32,VALID,0.560268,
2004-04-26, 01:05:00,VALID,916.595,VALID,0,VALID,98.9664,VALID,0.0169808,VALID,21.1153,VALID,27,VALID,0.535457,
2004-04-26, 01:06:00,VALID,916.576,VALID,0,VALID,98.9766,VALID,0.0509425,VALID,21.0989,VALID,26,VALID,0.465972,
2004-04-26, 01:07:00,VALID,916.565,VALID,0,VALID,99.0796,VALID,0.0339617,VALID,21.1153,VALID,26,VALID,0.467152,
2004-04-26, 01:08:00,VALID,916.552,VALID,0,VALID,99.1165,VALID,0.0169808,VALID,21.122,VALID,26,VALID,0.427973,
2004-04-26, 01:09:00,VALID,916.539,VALID,0,VALID,99.1139,VALID,0.0679233,VALID,21.1086,VALID,26,VALID,0.369048,
2004-04-26, 01:10:00,VALID,916.514,VALID,0,VALID,99.208,VALID,0.0339617,VALID,21.1045,VALID,26,VALID,0.391016,
2004-04-26, 01:11:00,VALID,916.503,VALID,0,VALID,99.2424,VALID,0.0509425,VALID,21.1177,VALID,26,VALID,0.524306,
2004-04-26, 01:12:00,VALID,916.485,VALID,0,VALID,99.2551,VALID,0.0509425,VALID,21.1282,VALID,26,VALID,0.538281,
2004-04-26, 01:13:00,VALID,916.479,VALID,0,VALID,99.3136,VALID,0.0679233,VALID,21.1247,VALID,26,VALID,0.679688,
2004-04-26, 01:14:00,VALID,916.475,VALID,0,VALID,99.3416,VALID,0.0509425,VALID,21.1309,VALID,26,VALID,0.589939,
2004-04-26, 01:15:00,VALID,916.474,VALID,0,VALID,99.3632,VALID,0.0679233,VALID,21.1341,VALID,29,VALID,0.624399,
2004-04-26, 01:16:00,VALID,916.479,VALID,0,VALID,99.3695,VALID,0.0679233,VALID,21.1282,VALID,37,VALID,0.838299,
2004-04-26, 01:17:00,VALID,916.484,VALID,0,VALID,99.4624,VALID,0.0509425,VALID,21.1247,VALID,32,VALID,0.719815,
2004-04-26, 01:18:00,VALID,916.507,VALID,0,VALID,99.545,VALID,-0.0339617,VALID,21.1387,VALID,25,VALID,0.708651,
2004-04-26, 01:19:00,VALID,916.513,VALID,0,VALID,99.5921,VALID,-0.0509425,VALID,21.133,VALID,19,VALID,0.809775,
2004-04-26, 01:20:00,VALID,916.527,VALID,0,VALID,99.6429,VALID,-0.0169808,VALID,21.126,VALID,15,VALID,1.04278,
2004-04-26, 01:21:00,VALID,916.536,VALID,0,VALID,99.6582,VALID,-0.0509425,VALID,21.1196,VALID,11,VALID,0.763081,
2004-04-26, 01:22:00,VALID,916.555,VALID,0,VALID,99.6175,VALID,-0.0339617,VALID,21.0808,VALID,15,VALID,0.968559,
2004-04-26, 01:23:00,VALID,916.557,VALID,0,VALID,99.751,VALID,-0.0169808,VALID,21.0706,VALID,23,VALID,1.10658,
2004-04-26, 01:24:00,VALID,916.569,VALID,0,VALID,99.8578,VALID,-0.0169808,VALID,21.097,VALID,25,VALID,1.17733,
2004-04-26, 01:25:00,VALID,916.577,VALID,0,VALID,99.8807,VALID,0,VALID,21.094,VALID,13,VALID,1.14804,
2004-04-26, 01:26:00,VALID,916.598,VALID,0,VALID,99.8642,VALID,-0.0679233,VALID,21.0682,VALID,20,VALID,1.11795,
2004-04-26, 01:27:00,VALID,916.618,VALID,0.2,VALID,99.8807,VALID,-0.0339617,VALID,21.0587,VALID,26,VALID,1.03906,
2004-04-26, 01:28:00,VALID,916.643,VALID,0,VALID,99.91,VALID,-0.0169808,VALID,21.0458,VALID,26,VALID,1.18594,
2004-04-26, 01:29:00,VALID,916.654,VALID,0,VALID,99.9151,VALID,-0.0339617,VALID,21.0092,VALID,49,VALID,1.51579,
2004-04-26, 01:30:00,VALID,916.664,VALID,0,VALID,99.957,VALID,-0.0339617,VALID,20.9936,VALID,50,VALID,1.98512,
2004-04-26, 01:31:00,VALID,916.671,VALID,0,VALID,99.971,VALID,-0.0169808,VALID,20.9675,VALID,48,VALID,2.23314,
2004-04-26, 01:32:00,VALID,916.676,VALID,0.2,VALID,99.9977,VALID,-0.0509425,VALID,20.9486,VALID,62,VALID,2.00572,
2004-04-26, 01:33:00,VALID,916.662,VALID,0.4,VALID,100,VALID,0,VALID,20.926,VALID,46,VALID,1.54497,
2004-04-26, 01:34:00,VALID,916.676,VALID,0.6,VALID,100,VALID,0,VALID,20.8999,VALID,62,VALID,1.84585,
2004-04-26, 01:35:00,VALID,916.645,VALID,0.6,VALID,100,VALID,-0.0509425,VALID,20.8811,VALID,68,VALID,2.06996,
2004-04-26, 01:36:00,VALID,916.637,VALID,0.6,VALID,100,VALID,-0.0679233,VALID,20.8681,VALID,81,VALID,1.76153,
2004-04-26, 01:37:00,VALID,916.63,VALID,0.4,VALID,100,VALID,-0.0509425,VALID,20.8353,VALID,96,VALID,1.17431,
2004-04-26, 01:38:00,VALID,916.634,VALID,0.8,VALID,100,VALID,-0.0169808,VALID,20.8229,VALID,68,VALID,1.4233,
2004-04-26, 01:39:00,VALID,916.625,VALID,1,VALID,100,VALID,-0.0679233,VALID,20.8291,VALID,55,VALID,1.19115,
2004-04-26, 01:40:00,VALID,916.612,VALID,1.4,VALID,100,VALID,-0.0169808,VALID,20.809,VALID,44,VALID,1.25781,
2004-04-26, 01:41:00,VALID,916.548,VALID,1.2,VALID,100,VALID,-0.0169808,VALID,20.8097,VALID,54,VALID,0.554506,
2004-04-26, 01:42:00,VALID,916.454,VALID,1,VALID,100,VALID,-0.0169808,VALID,20.7971,VALID,291,VALID,0.748512,
2004-04-26, 01:43:00,VALID,916.419,VALID,0.6,VALID,100,VALID,-0.0679233,VALID,20.7581,VALID,235,VALID,0.891006,
2004-04-26, 01:44:00,VALID,916.398,VALID,0.4,VALID,100,VALID,-0.0509425,VALID,20.7747,VALID,262,VALID,0.171503,
2004-04-26, 01:45:00,VALID,916.415,VALID,0.4,VALID,100,VALID,-0.0509425,VALID,20.7904,VALID,318,VALID,0.333079,
2004-04-26, 01:46:00,VALID,916.413,VALID,0.2,VALID,100,VALID,-0.0679233,VALID,20.8035,VALID,29,VALID,1.36506,
2004-04-26, 01:47:00,VALID,916.375,VALID,0.2,VALID,100,VALID,-0.101885,VALID,20.8068,VALID,29,VALID,0.764101,
2004-04-26, 01:48:00,VALID,916.329,VALID,0.2,VALID,100,VALID,-0.0679233,VALID,20.8124,VALID,18,VALID,0.243229,
2004-04-26, 01:49:00,VALID,916.291,VALID,0.2,VALID,100,VALID,-0.0169808,VALID,20.7909,VALID,263,VALID,0.571555,
2004-04-26, 01:50:00,VALID,916.269,VALID,0,VALID,100,VALID,-0.101885,VALID,20.7656,VALID,238,VALID,0.821429,
2004-04-26, 01:51:00,VALID,916.24,VALID,0.2,VALID,100,VALID,-0.152827,VALID,20.7397,VALID,243,VALID,0.662109,
2004-04-26, 01:52:00,VALID,916.229,VALID,0,VALID,100,VALID,-0.135847,VALID,20.7435,VALID,225,VALID,0.54043,
2004-04-26, 01:53:00,VALID,916.208,VALID,0,VALID,100,VALID,-0.118866,VALID,20.7395,VALID,219,VALID,0.337984,
2004-04-26, 01:54:00,VALID,916.195,VALID,0,VALID,100,VALID,-0.0849042,VALID,20.7621,VALID,219,VALID,0.150213,
2004-04-26, 01:55:00,VALID,916.176,VALID,0.2,VALID,100,VALID,-0.0849042,VALID,20.7631,VALID,219,VALID,0.376524,
2004-04-26, 01:56:00,VALID,916.171,VALID,0,VALID,100,VALID,-0.118866,VALID,20.7335,VALID,219,VALID,0.0649182,
2004-04-26, 01:57:00,VALID,916.174,VALID,0,VALID,100,VALID,-0.101885,VALID,20.7273,VALID,219,VALID,0,
2004-04-26, 01:58:00,VALID,916.172,VALID,0,VALID,100,VALID,-0.101885,VALID,20.7306,VALID,219,VALID,0,
2004-04-26, 01:59:00,VALID,916.161,VALID,0,VALID,100,VALID,-0.101885,VALID,20.7365,VALID,219,VALID,0,
2004-04-26, 02:00:00,VALID,916.164,VALID,0,VALID,100,VALID,-0.0849042,VALID,20.73,VALID,219,VALID,0,
2004-04-26, 02:01:00,VALID,916.15,VALID,0,VALID,100,VALID,-0.101885,VALID,20.7238,VALID,219,VALID,0.286519,
2004-04-26, 02:02:00,VALID,916.131,VALID,0,VALID,100,VALID,-0.0849042,VALID,20.7072,VALID,219,VALID,0.265439,
2004-04-26, 02:03:00,VALID,916.123,VALID,0,VALID,100,VALID,-0.0339617,VALID,20.7026,VALID,219,VALID,0.363758,
2004-04-26, 02:04:00,VALID,916.122,VALID,0,VALID,100,VALID,-0.0169808,VALID,20.7026,VALID,219,VALID,0.242188,
2004-04-26, 02:05:00,VALID,916.109,VALID,0,VALID,100,VALID,-0.0169808,VALID,20.6962,VALID,219,VALID,0.24657,
2004-04-26, 02:06:00,VALID,916.102,VALID,0,VALID,100,VALID,-0.0169808,VALID,20.687,VALID,219,VALID,0.103566,
2004-04-26, 02:07:00,VALID,916.085,VALID,0,VALID,100,VALID,0.0169808,VALID,20.6736,VALID,220,VALID,0.272461,
2004-04-26, 02:08:00,VALID,916.075,VALID,0,VALID,100,VALID,0.0169808,VALID,20.6609,VALID,241,VALID,0.459847,
2004-04-26, 02:09:00,VALID,916.06,VALID,0,VALID,100,VALID,0,VALID,20.6641,VALID,246,VALID,0.292111,
2004-04-26, 02:10:00,VALID,916.043,VALID,0,VALID,100,VALID,-0.0339617,VALID,20.6445,VALID,246,VALID,0.14027,
2004-04-26, 02:11:00,VALID,916.029,VALID,0,VALID,100,VALID,-0.0339617,VALID,20.6348,VALID,246,VALID,0.213956,
2004-04-26, 02:12:00,VALID,916.011,VALID,0,VALID,100,VALID,0,VALID,20.641,VALID,246,VALID,0.00611413,
2004-04-26, 02:13:00,VALID,915.987,VALID,0,VALID,100,VALID,0,VALID,20.6609,VALID,246,VALID,0.00109012,
2004-04-26, 02:14:00,VALID,915.963,VALID,0,VALID,100,VALID,-0.0169808,VALID,20.6571,VALID,246,VALID,0.00053267,
2004-04-26, 02:15:00,VALID,915.944,VALID,0,VALID,100,VALID,0,VALID,20.7002,VALID,246,VALID,0.288681,
2004-04-26, 02:16:00,VALID,915.929,VALID,0,VALID,100,VALID,0,VALID,20.7061,VALID,246,VALID,0.30293,
2004-04-26, 02:17:00,VALID,915.901,VALID,0,VALID,100,VALID,-0.0679233,VALID,20.69,VALID,246,VALID,0.422743,
2004-04-26, 02:18:00,VALID,915.906,VALID,0,VALID,100,VALID,0,VALID,20.6639,VALID,247,VALID,0.202083,
2004-04-26, 02:19:00,VALID,915.913,VALID,0,VALID,100,VALID,0,VALID,20.6681,VALID,247,VALID,0,
2004-04-26, 02:20:00,VALID,915.909,VALID,0,VALID,100,VALID,-0.0339617,VALID,20.6711,VALID,247,VALID,0.0165551,
2004-04-26, 02:21:00,VALID,915.9,VALID,0,VALID,100,VALID,-0.0169808,VALID,20.6811,VALID,247,VALID,0,
2004-04-26, 02:22:00,VALID,915.888,VALID,0,VALID,100,VALID,-0.0679233,VALID,20.6907,VALID,247,VALID,0,
2004-04-26, 02:23:00,VALID,915.867,VALID,0,VALID,100,VALID,-0.0169808,VALID,20.6743,VALID,247,VALID,0,
2004-04-26, 02:24:00,VALID,915.857,VALID,0,VALID,100,VALID,-0.0169808,VALID,20.6641,VALID,247,VALID,0,
2004-04-26, 02:25:00,VALID,915.844,VALID,0,VALID,100,VALID,-0.0169808,VALID,20.6614,VALID,247,VALID,0,
2004-04-26, 02:26:00,VALID,915.838,VALID,0,VALID,100,VALID,-0.0169808,VALID,20.6681,VALID,247,VALID,0,
2004-04-26, 02:27:00,VALID,915.829,VALID,0,VALID,100,VALID,-0.0509425,VALID,20.6517,VALID,247,VALID,0,
2004-04-26, 02:28:00,VALID,915.81,VALID,0,VALID,100,VALID,-0.0169808,VALID,20.6455,VALID,247,VALID,0,
2004-04-26, 02:29:00,VALID,915.802,VALID,0,VALID,100,VALID,-0.0169808,VALID,20.6159,VALID,247,VALID,0,
2004-04-26, 02:30:00,VALID,915.81,VALID,0,VALID,100,VALID,0,VALID,20.5966,VALID,247,VALID,0,
2004-04-26, 02:31:00,VALID,915.813,VALID,0,VALID,100,VALID,-0.0169808,VALID,20.5966,VALID,247,VALID,0,
2004-04-26, 02:32:00,VALID,915.825,VALID,0,VALID,100,VALID,0,VALID,20.6127,VALID,247,VALID,0,
2004-04-26, 02:33:00,VALID,915.828,VALID,0,VALID,100,VALID,-0.0169808,VALID,20.6159,VALID,247,VALID,0,
2004-04-26, 02:34:00,VALID,915.826,VALID,0,VALID,100,VALID,-0.0339617,VALID,20.5933,VALID,247,VALID,0,
2004-04-26, 02:35:00,VALID,915.83,VALID,0,VALID,100,VALID,-0.0509425,VALID,20.603,VALID,247,VALID,0,
2004-04-26, 02:36:00,VALID,915.832,VALID,0,VALID,100,VALID,-0.0679233,VALID,20.6199,VALID,247,VALID,0,
2004-04-26, 02:37:00,VALID,915.841,VALID,0,VALID,100,VALID,-0.0339617,VALID,20.6,VALID,247,VALID,0,
2004-04-26, 02:38:00,VALID,915.845,VALID,0,VALID,100,VALID,-0.101885,VALID,20.6033,VALID,247,VALID,0,
2004-04-26, 02:39:00,VALID,915.858,VALID,0,VALID,100,VALID,-0.0849042,VALID,20.6259,VALID,247,VALID,0.124809,
2004-04-26, 02:40:00,VALID,915.867,VALID,0,VALID,100,VALID,-0.0509425,VALID,20.652,VALID,247,VALID,0.333031,
2004-04-26, 02:41:00,VALID,915.882,VALID,0,VALID,100,VALID,-0.0679233,VALID,20.6811,VALID,247,VALID,0.295573,
2004-04-26, 02:42:00,VALID,915.889,VALID,0,VALID,100,VALID,-0.0339617,VALID,20.6781,VALID,247,VALID,0.385617,
2004-04-26, 02:43:00,VALID,915.9,VALID,0,VALID,100,VALID,-0.0169808,VALID,20.6345,VALID,263,VALID,0.411585,
2004-04-26, 02:44:00,VALID,915.907,VALID,0,VALID,100,VALID,-0.0509425,VALID,20.645,VALID,325,VALID,0.438227,
2004-04-26, 02:45:00,VALID,915.891,VALID,0,VALID,100,VALID,0,VALID,20.6353,VALID,325,VALID,0.43471,
2004-04-26, 02:46:00,VALID,915.869,VALID,0,VALID,100,VALID,-0.0169808,VALID,20.645,VALID,325,VALID,0.173828,
2004-04-26, 02:47:00,VALID,915.833,VALID,0,VALID,100,VALID,-0.0679233,VALID,20.6356,VALID,325,VALID,0.169876,
2004-04-26, 02:48:00,VALID,915.809,VALID,0,VALID,100,VALID,0.0509425,VALID,20.6273,VALID,325,VALID,0,
2004-04-26, 02:49:00,VALID,915.788,VALID,0,VALID,100,VALID,0.0509425,VALID,20.6146,VALID,325,VALID,0.0649182,
2004-04-26, 02:50:00,VALID,915.784,VALID,0,VALID,100,VALID,0,VALID,20.6149,VALID,325,VALID,0.330433,
2004-04-26, 02:51:00,VALID,915.764,VALID,0,VALID,100,VALID,0.0679233,VALID,20.6372,VALID,325,VALID,0.114099,
2004-04-26, 02:52:00,VALID,915.752,VALID,0,VALID,100,VALID,0.0169808,VALID,20.6733,VALID,325,VALID,0,
2004-04-26, 02:53:00,VALID,915.749,VALID,0,VALID,100,VALID,0.0339617,VALID,20.6763,VALID,325,VALID,0,
2004-04-26, 02:54:00,VALID,915.735,VALID,0,VALID,100,VALID,0,VALID,20.6725,VALID,325,VALID,0,
2004-04-26, 02:55:00,VALID,915.756,VALID,0,VALID,100,VALID,0.0169808,VALID,20.6733,VALID,325,VALID,0,
2004-04-26, 02:56:00,VALID,915.764,VALID,0,VALID,100,VALID,0.0169808,VALID,20.6305,VALID,325,VALID,0.115234,
2004-04-26, 02:57:00,VALID,915.766,VALID,0,VALID,100,VALID,0.0169808,VALID,20.6208,VALID,325,VALID,0,
2004-04-26, 02:58:00,VALID,915.768,VALID,0,VALID,100,VALID,0.0679233,VALID,20.6203,VALID,325,VALID,0.209077,
2004-04-26, 02:59:00,VALID,915.751,VALID,0,VALID,100,VALID,0.0339617,VALID,20.6305,VALID,325,VALID,0.1121,
2004-04-26, 03:00:00,VALID,915.709,VALID,0,VALID,100,VALID,0.0169808,VALID,20.6467,VALID,325,VALID,0,
2004-04-26, 03:01:00,VALID,915.683,VALID,0,VALID,100,VALID,0.0339617,VALID,20.6566,VALID,325,VALID,0.100654,
2004-04-26, 03:02:00,VALID,915.652,VALID,0,VALID,100,VALID,0.0339617,VALID,20.633,VALID,325,VALID,0.0626905,
2004-04-26, 03:03:00,VALID,915.635,VALID,0,VALID,100,VALID,-0.0169808,VALID,20.6574,VALID,325,VALID,0,
2004-04-26, 03:04:00,VALID,915.625,VALID,0,VALID,100,VALID,-0.0849042,VALID,20.6579,VALID,325,VALID,0.148065,
2004-04-26, 03:05:00,VALID,915.613,VALID,0,VALID,100,VALID,-0.0679233,VALID,20.6418,VALID,335,VALID,0.33939,
2004-04-26, 03:06:00,VALID,915.609,VALID,0,VALID,100,VALID,-0.0849042,VALID,20.652,VALID,339,VALID,0.223011,
2004-04-26, 03:07:00,VALID,915.593,VALID,0,VALID,100,VALID,-0.0849042,VALID,20.6259,VALID,283,VALID,0.454915,
2004-04-26, 03:08:00,VALID,915.569,VALID,0,VALID,100,VALID,-0.0849042,VALID,20.5774,VALID,234,VALID,0.72433,
2004-04-26, 03:09:00,VALID,915.563,VALID,0,VALID,100,VALID,-0.101885,VALID,20.5387,VALID,238,VALID,0.827381,
2004-04-26, 03:10:00,VALID,915.564,VALID,0,VALID,100,VALID,-0.0849042,VALID,20.5389,VALID,233,VALID,0.351376,
2004-04-26, 03:11:00,VALID,915.58,VALID,0,VALID,100,VALID,-0.101885,VALID,20.5519,VALID,221,VALID,0.309482,
2004-04-26, 03:12:00,VALID,915.575,VALID,0,VALID,100,VALID,-0.0339617,VALID,20.5449,VALID,127,VALID,0.667492,
2004-04-26, 03:13:00,VALID,915.574,VALID,0,VALID,100,VALID,-0.0679233,VALID,20.5745,VALID,67,VALID,0.758358,
2004-04-26, 03:14:00,VALID,915.568,VALID,0,VALID,100,VALID,-0.0509425,VALID,20.5777,VALID,59,VALID,0.403472,
2004-04-26, 03:15:00,VALID,915.557,VALID,0,VALID,100,VALID,-0.0849042,VALID,20.5938,VALID,59,VALID,0.287427,
2004-04-26, 03:16:00,VALID,915.547,VALID,0,VALID,100,VALID,-0.0679233,VALID,20.5933,VALID,59,VALID,0.479725,
2004-04-26, 03:17:00,VALID,915.536,VALID,0,VALID,100,VALID,-0.0679233,VALID,20.5968,VALID,59,VALID,0.713605,
2004-04-26, 03:18:00,VALID,915.518,VALID,0,VALID,100,VALID,0.0339617,VALID,20.5823,VALID,59,VALID,0.844122,
2004-04-26, 03:19:00,VALID,915.499,VALID,0,VALID,100,VALID,0.0509425,VALID,20.5764,VALID,58,VALID,0.609756,
2004-04-26, 03:20:00,VALID,915.474,VALID,0,VALID,100,VALID,0,VALID,20.5565,VALID,57,VALID,0.478051,
2004-04-26, 03:21:00,VALID,915.476,VALID,0,VALID,100,VALID,0.0509425,VALID,20.5401,VALID,57,VALID,0.419271,
2004-04-26, 03:22:00,VALID,915.458,VALID,0,VALID,100,VALID,0.0339617,VALID,20.5466,VALID,57,VALID,0.35556,
2004-04-26, 03:23:00,VALID,915.445,VALID,0,VALID,100,VALID,0.0339617,VALID,20.5307,VALID,57,VALID,0.19972,
2004-04-26, 03:24:00,VALID,915.426,VALID,0,VALID,100,VALID,0.0169808,VALID,20.5277,VALID,57,VALID,0,
2004-04-26, 03:25:00,VALID,915.406,VALID,0,VALID,100,VALID,0.0339617,VALID,20.5143,VALID,57,VALID,0,
2004-04-26, 03:26:00,VALID,915.385,VALID,0,VALID,100,VALID,0.0509425,VALID,20.5307,VALID,57,VALID,0,
2004-04-26, 03:27:00,VALID,915.362,VALID,0,VALID,100,VALID,0.0169808,VALID,20.5312,VALID,57,VALID,0,
2004-04-26, 03:28:00,VALID,915.35,VALID,0,VALID,100,VALID,0.0509425,VALID,20.5312,VALID,57,VALID,0,
2004-04-26, 03:29:00,VALID,915.341,VALID,0,VALID,100,VALID,0.0169808,VALID,20.5148,VALID,57,VALID,0,
2004-04-26, 03:30:00,VALID,915.318,VALID,0,VALID,100,VALID,0,VALID,20.5078,VALID,57,VALID,0,
2004-04-26, 03:31:00,VALID,915.311,VALID,0,VALID,100,VALID,0.0169808,VALID,20.4954,VALID,57,VALID,0.118096,
2004-04-26, 03:32:00,VALID,915.314,VALID,0,VALID,100,VALID,0,VALID,20.476,VALID,82,VALID,0.500372,
2004-04-26, 03:33:00,VALID,915.301,VALID,0,VALID,100,VALID,-0.0849042,VALID,20.4773,VALID,116,VALID,0.603906,
2004-04-26, 03:34:00,VALID,915.305,VALID,0,VALID,100,VALID,-0.101885,VALID,20.4644,VALID,136,VALID,0.721227,
2004-04-26, 03:35:00,VALID,915.31,VALID,0,VALID,100,VALID,-0.101885,VALID,20.4318,VALID,136,VALID,0.665516,
2004-04-26, 03:36:00,VALID,915.313,VALID,0,VALID,100,VALID,-0.0679233,VALID,20.4194,VALID,140,VALID,1.1542,